Location: Daybis Observatory
(33.4273°N, 88.8061°W)
Time: 10:13:09
(UTC-06:00)

Daily predictions for brighter satellites

Satellite Brightness Start Highest point End
(mag) Time Altitude Azimuth Time Altitude Azimuth Time Altitude Azimuth
OAO 1 Rocket 4.5 17:32:35 10° W 17:37:54 80° N 17:43:13 10° E
COSMO-SKYMED 1 2.8 17:35:59 10° NNE 17:40:12 48° E 17:44:22 10° S
Cosmos 2151 3.0 17:38:56 10° S 17:43:08 89° ESE 17:47:21 10° N
USA 215 4.5 17:39:20 10° ENE 17:44:04 22° NNE 17:48:47 10° NNW
CZ-4 R/B 2.5 17:41:06 10° S 17:44:51 48° W 17:48:38 10° NNW
Cosmos 2278 Rocket 2.2 17:43:56 10° NNW 17:49:37 73° ENE 17:55:16 10° SSE
Cosmos 1726 2.2 17:47:13 10° N 17:50:59 90° N 17:54:46 10° S
Cosmos 1703 3.7 17:47:52 10° SSE 17:51:31 41° E 17:55:12 10° NNE
SJ-6B 4.4 17:49:43 10° ESE 17:52:24 17° ENE 17:55:06 10° NNE
Cosmos 1455 3.7 17:50:27 10° NE 17:52:53 16° ENE 17:55:19 10° ESE
Tiangong 1 2.7 17:58:50 10° SSW 18:01:07 20° SE 18:02:54 13° E
CZ-2C R/B 4.3 18:01:52 10° SSW 18:06:25 35° W 18:10:51 10° NNW
Cosmos 2279 Rocket 3.9 18:00:29 10° N 18:06:43 75° E 18:12:56 10° S
Cosmos 2237 Rocket 3.7 18:04:15 10° SW 18:09:22 36° WNW 18:14:32 10° N
Cosmos 1300 4.0 18:09:01 10° NNW 18:12:41 45° W 18:16:20 10° SSW
Cosmos 1151 Rocket 4.2 18:08:58 10° NNW 18:13:04 46° W 18:17:10 10° SSW
Meteor 1-27 4.3 18:07:59 10° N 18:13:50 89° W 18:19:40 10° S
SL-16 R/B 2.4 18:11:16 10° SSW 18:16:55 77° WNW 18:22:34 10° NNE
Cosmos 1340 Rocket 3.7 18:15:04 10° SSW 18:18:53 50° W 18:22:43 10° N
Cosmos 1484 Rocket 3.7 18:15:41 10° S 18:19:30 54° W 18:23:25 10° NNW
Lacrosse 4 Rocket 3.3 18:17:24 10° NNE 18:18:28 13° NE 18:18:28 13° NE
Nadezhda 4 Rocket 4.0 18:15:34 10° S 18:21:42 63° E 18:27:55 10° NNE
ALOS 3.3 18:19:01 10° ESE 18:22:44 24° ENE 18:26:25 10° NNE
USA 229 DEB 3.7 18:16:28 10° SSW 18:23:12 66° ESE 18:29:43 11° NE
USA 229 3.7 18:16:34 10° SSW 18:23:18 65° ESE 18:29:47 12° NE
Cosmos 1805 Rocket 3.8 18:18:52 10° SSW 18:23:18 74° W 18:27:46 10° N
Cosmos 1184 Rocket 2.8 18:21:20 10° S 18:24:38 62° E 18:27:44 11° NNE
Spot 2 Rocket 4.4 18:20:51 10° ESE 18:24:50 24° ENE 18:28:50 10° NNE
Cosmos 2242 Rocket 4.3 18:21:04 10° NNE 18:24:56 29° ENE 18:28:49 10° SE
Cosmos 292 Rocket 4.2 18:28:33 10° S 18:32:59 40° ESE 18:35:12 24° NE
Cosmos 2297 3.6 18:27:47 10° NNW 18:33:32 79° ENE 18:39:15 10° SSE
Iridium 4 Rocket 3.4 18:29:49 10° SSE 18:34:10 43° E 18:38:15 10° NNE
Meteor 1-28 Rocket 4.4 18:33:22 10° N 18:36:54 42° WNW 18:40:25 10° SSW
Cosmos 1869 3.8 18:34:38 10° NNE 18:38:25 37° E 18:42:10 10° SSE
Sich 1 3.2 18:34:00 10° S 18:38:26 79° W 18:42:53 10° N
Cosmos 1092 Rocket 3.9 18:36:49 10° S 18:43:04 68° E 18:49:23 10° NNE
Cosmos 1633 Rocket 3.3 18:43:01 10° SSW 18:47:24 71° W 18:51:48 10° N
Cosmos 923 Rocket 3.9 18:42:15 10° S 18:47:25 68° ESE 18:50:55 21° NNE
FENGYUN 3A 3.8 18:42:45 10° SE 18:47:49 45° ENE 18:52:55 10° N
METEOR-M 4.1 18:45:07 10° SSE 18:50:28 84° WSW 18:55:51 10° NNW
Delta 2 Rocket 4.2 18:51:00 10° SW 18:53:33 27° SSE 18:53:33 27° SSE
Cosmos 1680 Rocket 3.5 18:49:11 10° S 18:54:17 59° ESE 18:56:19 35° NE
SL-19 R/B 4.3 18:49:53 10° SSE 18:55:46 65° ENE 19:01:21 10° N
Cosmos 1943 3.9 18:50:52 10° SSE 18:55:13 32° ESE 18:55:13 32° ESE
FREGAT/IRIS 3.1 18:54:23 10° S 18:57:23 60° W 19:00:24 10° NNW
Aureole 1 Rocket 4.0 18:53:03 10° SSW 18:58:04 69° WNW 19:04:48 10° NNE
Coronas F rocket 3.3 18:57:44 10° SW 18:59:27 26° W 18:59:27 26° W
Lacrosse 5 rocket 3.1 19:00:53 10° WNW 19:04:20 31° WSW 19:07:58 10° S
Intelsat 5-1 Rocket 4.0 19:02:41 10° SW 19:04:57 17° S 19:05:57 16° SSE
Cosmos 2195 Rocket 4.3 19:01:15 10° S 19:07:17 68° E 19:13:15 11° NNE
OTV 4 3.5 19:10:03 10° SW 19:11:01 11° SW 19:11:49 10° SSW
NOSS 3-1 (C) 3.3 19:09:58 10° SSW 19:15:31 57° ESE 19:15:42 57° ESE
FengYun 1-2 T 4.1 19:12:04 10° SSE 19:17:38 87° WSW 19:23:12 10° NNW
Cosmos 1603 4.1 19:16:05 10° SSW 19:21:36 60° WNW 19:24:34 28° N
Resurs 01 Rocket 2.4 19:21:08 10° S 19:26:52 45° NNW 19:30:01 10° NNW
USA 215 3.1 19:24:57 57° ESE 19:26:16 72° NE 19:32:48 10° NW
Cosmos 2112 Rocket 4.1 19:25:16 10° SSW 19:30:26 72° WNW 19:31:03 64° NNW
Cosmos 1655 Rocket 3.9 19:29:47 10° S 19:36:10 87° E 19:37:30 59° N
Milstar 3 4.4 19:31:13 10° WSW 19:36:37 26° SSW 19:41:03 16° SSE
Tiangong 1 4.4 19:34:11 10° W 19:34:31 12° W 19:34:31 12° W
Lacrosse 4 Rocket 4.3 19:54:47 10° NW 19:54:54 11° NW 19:54:54 11° NW
ALOS 4.2 19:56:04 10° SSW 20:00:00 27° W 20:03:57 10° NW
